Regional Weather Roundup
Issued by NWS

Home | Current Version | Previous Version | Graphics & Text | Print | Product List | Glossary On
Versions: 1 2 3 4 5 6 7 8 9 10 11 12 13 14 15 16 17 18 19 20 21 22 23 24 25 26 27 28 29 30 31 32 33 34 35 36 37 38 39 40 41 42 43 44 45 46 47 48 49 50
000
ASUS43 KFSD 221302
RWRSD

WEATHER ROUNDUP FOR SOUTH DAKOTA
NATIONAL WEATHER SERVICE SIOUX FALLS SD
800 AM CDT THU JUN 22 2017

NOTE: "FAIR" INDICATES FEW OR NO CLOUDS BELOW 12,000 FEET WITH NO
SIGNIFICANT WEATHER AND/OR OBSTRUCTIONS TO VISIBILITY.


SDZ001>005-009-010-012>017-221400-
NORTHWEST AND NORTH CENTRAL SOUTH DAKOTA

CITY           SKY/WX    TMP DP  RH WIND       PRES   REMARKS
BUFFALO          N/A     58  44  60 NE14      29.86R
FAITH            N/A     57  49  74 N17       29.84R
MOBRIDGE       CLOUDY    62  52  69 N9        29.80R HAZE
$$

SDZ012>016-024>037-041>051-057-063-072>074-221400-
SOUTHWEST AND SOUTH CENTRAL SOUTH DAKOTA

CITY           SKY/WX    TMP DP  RH WIND       PRES   REMARKS
RAPID CTY ARPT MOSUNNY   63  51  65 NW5       29.85R
PIERRE         CLOUDY    55  52  89 NE9       29.75R
CUSTER         SUNNY     61  46  57 CALM      29.94R
ELLSWORTH AFB  PTSUNNY   64  50  59 CALM      29.85R
PHILIP         CLOUDY    62  54  74 NE5       29.79R
PINE RIDGE     SUNNY     62  51  67 N13       29.82R
SPEARFISH      FAIR      57  54  88 NW7       29.94R
WINNER         FAIR      69  54  58 NE15      29.73R
$$

SDZ004>011-016>023-039-040-221400-
NORTHEAST SOUTH DAKOTA

CITY           SKY/WX    TMP DP  RH WIND       PRES   REMARKS
ABERDEEN       CLOUDY    60  57  89 N6        29.75R
WATERTOWN      LGT RAIN  57  55  93 N12       29.72R
BROOKINGS      CLOUDY    63  57  81 E10       29.66F
SISSETON         N/A     61  56  83 NW6       29.71F
$$

SDZ017-020-022-023-036>040-048>070-221400-
SOUTHEAST SOUTH DAKOTA

CITY           SKY/WX    TMP DP  RH WIND       PRES   REMARKS
SIOUX FALLS    CLOUDY    72  62  71 E9        29.69F
HURON          CLOUDY    61  60  97 N5        29.69F
CHAMBERLAIN    CLOUDY    65  59  80 N8        29.73R
MITCHELL       CLOUDY    68  59  73 E8        29.67F
YANKTON        MOSUNNY   73  65  75 NE8       29.68F
$$

ABBREVIATIONS USED IN REMARKS
   TC - TEMPERATURE IN CELSIUS
  WCI - WIND CHILL INDEX
   HX - HEAT INDEX
  VSB - VISIBILITY





USA.gov is the U.S. government's official web portal to all federal, state and local government web resources and services.